Weather Roundup
Issued by NWS Chicago, IL

Home | Current Version | Previous Version | Text Only | Print | Product List | Glossary Off
Versions: 1 2 3 4 5 6 7 8 9 10 11 12 13 14 15 16 17 18 19 20 21 22 23 24 25 26 27 28 29 30 31 32 33 34 35 36 37 38 39 40 41 42 43 44 45 46 47 48 49 50

544
NZUS59 KLOT 210812
HRRLOT

CHICAGO AREA WEATHER ROUNDUP
NATIONAL WEATHER SERVICE CHICAGO/ROMEOVILLE IL
200 AM CST SAT JAN 21 2017

NOTE: "FAIR" INDICATES FEW OR NO CLOUDS BELOW 12,000 FEET WITH NO
SIGNIFICANT WEATHER AND/OR OBSTRUCTIONS TO VISIBILITY.

* THESE STATIONS ARE NOT UNDER NWS QUALITY CONTROL. THEY ALSO MAY NOT
  REPORT WEATHER SUCH AS PRECIPITATION OR FOG.

ILZ005-006-012>014-019>023-210900-
NORTHEAST ILLINOIS

CITY           SKY/WX    TMP DP  RH WIND       PRES   REMARKS
OHARE          CLOUDY    44  44 100 S5        29.59R FOG
MIDWAY         DRIZZLE   47  45  93 SE6       29.60S FOG
AURORA         CLOUDY    46  45  96 SE10      29.57F FOG
LANSING*       CLOUDY    47  47 100 S5        29.61S FOG
JOLIET*        CLOUDY    48  48  99 SE5       29.59S FOG
WAUKEGAN       FOG       39  38  96 CALM      29.59S VSB 1/4
DUPAGE AIRPORT CLOUDY    47  45  93 S8        29.57S FOG
WHEELING       CLOUDY    41  40  96 CALM      29.60S FOG
KANKAKEE*      CLOUDY    49  49  97 CALM      29.61S
MORRIS*        CLOUDY    46  45  97 SE5       29.57F FOG
LEWIS AIRPORT* CLOUDY    46  46 100 S8        29.59S FOG
NORTHERLY ISL    N/A     39  38  96 E2          N/A
$$

WIZ051-052-058>065-066-070>072-210900-
SOUTHEAST WISCONSIN

CITY           SKY/WX    TMP DP  RH WIND       PRES   REMARKS
MILWAUKEE      FOG       39  38  96 CALM      29.61S VSB 1/8
KENOSHA*       FOG       38  37  97 VRB5      29.60S VSB 1/4
RACINE*        FOG       39  38  96 E3        29.62S VSB 1/4
WAUKESHA       DRIZZLE   34  34 100 E3        29.61S
WEST BEND      LGT RAIN  34  34 100 NE3       29.60F VSB 1/4
$$

INZ001>003-010>013-019-020-210900-
NORTHWEST INDIANA

CITY           SKY/WX    TMP DP  RH WIND       PRES   REMARKS
GARY*          CLOUDY    50  48  92 S6        29.62S FOG
MICHIGAN CITY* NOT AVBL
RENSSELAER*    NOT AVBL
VALPARAISO     PTCLDY    49  48  97 SE6       29.62F FOG
$$

LMZ740>746-210900-
SOUTHERN LAKE MICHIGAN

STATION/POSITION TIME  SKY/WX   TEMP WIND        PRES    VSBY
                                AIR  DIR/SP/G
                 (UTC)          (F)  (DEG/KT/KT) (MB)    (MI)
HARRISON CRIB    0740            44  160/  9/ 10   N/A
BURNHAM HARBOR   0800            39   CALM  /  3   N/A
CALUMET HARBOR   0748            48  170/  4/  7 1002.3R
BURNS HARBOR     0740            50  180/ 12/ 16 1003.7S
MICHIGAN CITY    0740            50  130/ 14/ 16   N/A
$$

ABBREVIATIONS USED IN REMARKS
   TC - TEMPERATURE IN CELSIUS
  WCI - WIND CHILL INDEX
   HX - HEAT INDEX
  VSB - VISIBILITY
$$




USA.gov is the U.S. government's official web portal to all federal, state and local government web resources and services.